Regional Weather Roundup
Issued by NWS

Home | Current Version | Previous Version | Text Only | Print | Product List | Glossary On
Versions: 1 2 3 4 5 6 7 8 9 10 11 12 13 14 15 16 17 18 19 20 21 22 23 24 25 26 27 28 29 30 31 32 33 34 35 36 37 38 39 40 41 42 43 44 45 46 47 48 49 50
000
ASUS43 KDTX 270601
RWRMI
MICHIGAN HOURLY REGIONAL WEATHER ROUNDUP
NATIONAL WEATHER SERVICE DETROIT/PONTIAC MI
200 AM EDT FRI MAY 27 2016

NOTE: "FAIR" INDICATES FEW OR NO CLOUDS BELOW 12,000 FEET WITH NO
SIGNIFICANT WEATHER AND/OR OBSTRUCTION TO VISIBILITY.

MIZ047>049-052>055-059>063-066>070-074>076-081>083-270700-
SOUTHEAST LOWER MICHIGAN

CITY           SKY/WX    TMP DP  RH WIND       PRES   REMARKS
ADRIAN         PTCLDY    68  61  78 W5        29.95S
6HR MIN TEMP:  68; 6HR MAX TEMP:  82;

ALMA           CLOUDY    63  62  96 CALM      29.92R
ANN ARBOR      FOG       63  62  97 S3        29.93F VSB 1/2
BAD AXE        CLEAR     65  64  97 CALM      29.91S
CARO           FOG       62  61  97 CALM      29.91S VSB 1/4
DETROIT CITY   PTCLDY    74  64  71 S6        29.93S
6HR MIN TEMP:  74; 6HR MAX TEMP:  82;

DETROIT        MOCLDY    71  65  81 S6        29.94S
6HR MIN TEMP:  71; 6HR MAX TEMP:  83;

FLINT          MOCLDY    71  60  68 SW6       29.92S
6HR MIN TEMP:  69; 6HR MAX TEMP:  85; 6HR PCP:  0.08;

GROSSE ILE     CLOUDY    70  66  88 S9        29.93F
HILLSDALE      CLEAR     66  60  79 S5        29.95F
HOWELL         PTCLDY    67  60  79 CALM      29.93F

CITY           SKY/WX    TMP DP  RH WIND       PRES   REMARKS
JACKSON        CLEAR     66  61  84 SW5       29.93F
6HR MIN TEMP:  66; 6HR MAX TEMP:  81;

LAMBERTVILLE   CLOUDY    72  64  77 S3        29.96S
6HR MIN TEMP:  72; 6HR MAX TEMP:  82;

LANSING        CLOUDY    68  61  78 CALM      29.93R
6HR MIN TEMP:  67; 6HR MAX TEMP:  80;

LAPEER         FAIR      68  61  79 S3        29.92S
6HR MIN TEMP:  68; 6HR MAX TEMP:  80;

MASON          CLEAR     66  58  74 CALM      29.93S
MONROE         MOCLDY    70  66  85 S10       29.93F
6HR MIN TEMP:  70; 6HR MAX TEMP:  80;

MT. CLEMENS    CLOUDY    67  66  94 SE7       29.91S
6HR MIN TEMP:  67; 6HR MAX TEMP:  76;

PONTIAC        CLOUDY    72  63  73 CALM      29.92F
6HR MIN TEMP:  71; 6HR MAX TEMP:  82;

PORT HOPE        N/A     67  66  97 CALM      29.89S
6HR MIN TEMP:  60; 6HR MAX TEMP:  73; 6HR PCP:  0.54;

PORT HURON     CLOUDY    68  64  88 CALM      29.93S
TRI CITIES     PTCLDY    71  65  81 S6        29.91S
6HR MIN TEMP:  69; 6HR MAX TEMP:  84; 6HR PCP: TRACE;

MIDLAND        FAIR      64  64  99 CALM      29.90S
6HR MIN TEMP:  63; 6HR MAX TEMP:  80;

TROY           CLOUDY    76  64  65 SW5       29.94F
SAGINAW HB     CLOUDY    64  63  94 S3        29.89F
$$
MIZ043>046-050>051-056>058-064>065-071>073-077>080-270700-
SOUTHWEST LOWER MICHIGAN

CITY           SKY/WX    TMP DP  RH WIND       PRES   REMARKS
BATTLE CREEK   CLEAR     65  60  84 SW5       29.93F
6HR MIN TEMP:  63; 6HR MAX TEMP:  79;

BENTON HARBOR  PTCLDY    71  64  78 S5        29.90F
6HR MIN TEMP:  66; 6HR MAX TEMP:  78;

BIG RAPIDS     CLOUDY    60  59  97 CALM      29.91S
6HR MIN TEMP:  60; 6HR MAX TEMP:  76;

COLDWATER      CLEAR     67  61  80 SW6       29.94F
6HR MIN TEMP:  65; 6HR MAX TEMP:  80;

FREMONT        FAIR      62  62 100 CALM      29.90S FOG
HOLLAND        PTCLDY    66  61  84 CALM      29.90F
6HR MIN TEMP:  65; 6HR MAX TEMP:  77;

GRAND RAPIDS   PTCLDY    67  62  84 CALM      29.91S
6HR MIN TEMP:  66; 6HR MAX TEMP:  81;

IONIA          FAIR      65  61  85 CALM      29.91R
6HR MIN TEMP:  65; 6HR MAX TEMP:  79;

KALAMAZOO      PTCLDY    68  61  78 S5        29.92F
6HR MIN TEMP:  66; 6HR MAX TEMP:  81;

LUDINGTON      CLOUDY    57  57  99 CALM      29.89F
6HR MIN TEMP:  57; 6HR MAX TEMP:  75;

MARSHALL       CLEAR     65  61  86 CALM      29.93F
6HR MIN TEMP:  62; 6HR MAX TEMP:  81;

MOUNT PLEASANT CLOUDY    62  61  98 CALM      29.91R
6HR MIN TEMP:  61; 6HR MAX TEMP:  79;

MUSKEGON       PTCLDY    65  59  81 SE3       29.89F
6HR MIN TEMP:  64; 6HR MAX TEMP:  75;

SOUTH HAVEN    CLEAR     68  64  89 S3        29.91R
$$
MIZ016>042-270700-
NORTHERN LOWER MICHIGAN

CITY           SKY/WX    TMP DP  RH WIND       PRES   REMARKS
ALPENA         CLEAR     62  61  96 CALM      29.90R
6HR MIN TEMP:  59; 6HR MAX TEMP:  71;

BEAVER ISLAND  FOG       52  52 100 CALM      29.89F VSB 1/2
6HR MIN TEMP:  51; 6HR MAX TEMP:  55;

BELLAIRE       CLEAR     58  57  96 CALM      29.90S FOG
6HR MIN TEMP:  57; 6HR MAX TEMP:  76;

CADILLAC       CLOUDY    58  56  95 CALM      29.92S
CHARLEVOIX     FOG       55  55 100 CALM      29.92F VSB<1/4
FRANKFORT      CLOUDY    58  58  98 CALM      29.88F FOG
GAYLORD        CLEAR     62  59  90 CALM      29.91S
6HR MIN TEMP:  60; 6HR MAX TEMP:  76;

GRAYLING       CLOUDY    58  57  97 CALM      29.93R FOG
6HR MIN TEMP:  58; 6HR MAX TEMP:  79;

HARBOR SPRINGS FOG       52  52  99 CALM      29.90S VSB<1/4
HOUGHTON LAKE  CLOUDY    59  58  96 E3        29.92R FOG
6HR MIN TEMP:  59; 6HR MAX TEMP:  77;

MANISTEE       CLOUDY    57  54  88 CALM      29.89F
OSCODA         CLOUDY    65  64  94 CALM      29.89S
6HR MIN TEMP:  65; 6HR MAX TEMP:  75;

PELLSTON       FOG       58  57  97 W5        29.89F VSB 1/4
6HR MIN TEMP:  58; 6HR MAX TEMP:  67;

ROGERS CITY    FOG       52  51  94 CALM      29.91R VSB 1/4
TRAVERSE CITY  CLOUDY    63  60  90 CALM      29.88S
6HR MIN TEMP:  62; 6HR MAX TEMP:  79;

$$
MIZ007>008-015-270700-
EASTERN UPPER MICHIGAN

CITY           SKY/WX    TMP DP  RH WIND       PRES   REMARKS
KINROSS          N/A     57  57 100 W3        29.88S VSB 1/4
6HR MIN TEMP:  57; 6HR MAX TEMP:  64;

MACKINAC ISLAN FOG       55  55 100 W8        29.88S VSB 1/2
6HR MIN TEMP:  52; 6HR MAX TEMP:  61;

NEWBERRY       FOG       53  52  97 CALM      29.87F VSB 3/4
6HR MIN TEMP:  51; 6HR MAX TEMP:  59;

S. S. MARIE    FOG       58  57  97 CALM      29.87F VSB 1/4
6HR MIN TEMP:  57; 6HR MAX TEMP:  68;

MUNISING         N/A     58  57  97 S7        29.85F
6HR MIN TEMP:  54; 6HR MAX TEMP:  60;

$$
MIZ004>006-011>014-085-270700-
CENTRAL UPPER MICHIGAN

CITY           SKY/WX    TMP DP  RH WIND       PRES   REMARKS
MANISTIQUE     FOG       52  51  97 CALM      29.87F VSB<1/4
6HR MIN TEMP:  50; 6HR MAX TEMP:  58;

ESCANABA       CLOUDY    54  52  94 CALM      29.87R VSB 1/4
6HR MIN TEMP:  54; 6HR MAX TEMP:  66;

MENOMINEE      FOG       57  57 100 CALM      29.87  VSB 1/4
6HR MIN TEMP:  56; 6HR MAX TEMP:  65;

SAWYER-GWINN   PTCLDY    58  57  96 S7        29.87R
6HR MIN TEMP:  58; 6HR MAX TEMP:  66;

$$
MIZ001>003-009>011-084-270700-
WESTERN UPPER MICHIGAN

CITY           SKY/WX    TMP DP  RH WIND       PRES   REMARKS
IRON MOUNTAIN  FOG       62  61  96 SE5       29.85S VSB 1/2
6HR MIN TEMP:  60; 6HR MAX TEMP:  74;

HOUGHTON       FOG       51  50  96 NE3       29.83S VSB 1/4
6HR MIN TEMP:  51; 6HR MAX TEMP:  66;

COPPER HARBOR    N/A     50  50 100 CALM      29.83S
6HR MIN TEMP:  44; 6HR MAX TEMP:  53;

IRONWOOD       CLOUDY    55  55 100 W5        29.84R
6HR MIN TEMP:  55; 6HR MAX TEMP:  68;

$$

ABBREVIATIONS USED IN REMARKS
   TC - TEMPERATURE IN CELSIUS
  WCI - WIND CHILL INDEX
   HX - HEAT INDEX
  VSB - VISIBILITY





USA.gov is the U.S. government's official web portal to all federal, state and local government web resources and services.